ANA206 LOWW-RJTT

Flight info

Callsign ANA206
Flight time N/A
Altitude 31000
Route ADAMA Z648 VEDER L140 ALAMU DCT EPARI DCT BUDOP DCT DVA DCT BULEN DCT RIXEN/N0486F330 UA17 YAVRU UA4 SIV UW706 TBN UN61 NOLGA DCT BARAD M747 SUBUT T916 BALUN/K0902F330 T916 BIMDO/K0900F350 T916 MIHOS N147 GENGA DCT SARIN/K0898S1070 A368 FKG W188 GOVSA W66 DKO W69 MOSPA/K0887S1130 W69 HUR B339 LADIX W34 VAPGU W100 ORAVA W201 UNSEK A326 DONVO G597 AGAVO/N0485F370 Y644 EGOBA Y697 LANAT Y71 XAC
Aircraft B77W/H-SDE1E2E3FGHIJ2J3J4J5M1RWXY/LB1D1

Departure

Time 2026-04-22 16:46
Airport Vienna International Airport (LOWW)

Arrival

Time N/A
Airport Tokyo Haneda International Airport (RJTT)
Time Latitude Longitude Altitude Speed Heading
2026-04-22 16:21 48.11832 16.57056 619 ft 0 kts 190°
2026-04-22 16:35 48.11828 16.57055 607 ft 3 kts 191°
2026-04-22 16:35 48.11836 16.57057 623 ft 4 kts 164°
2026-04-22 16:35 48.11837 16.57059 623 ft 4 kts 156°
2026-04-22 16:36 48.11839 16.57051 623 ft 4 kts 209°
2026-04-22 16:36 48.11838 16.57050 623 ft 0 kts 213°
2026-04-22 16:39 48.11844 16.57056 607 ft 5 kts 213°
2026-04-22 16:39 48.11882 16.57065 623 ft 1 kts 127°
2026-04-22 16:39 48.11877 16.57080 623 ft 2 kts 117°
2026-04-22 16:39 48.11872 16.57096 619 ft 2 kts 117°
2026-04-22 16:40 48.11866 16.57121 620 ft 4 kts 109°
2026-04-22 16:40 48.11859 16.57179 619 ft 9 kts 101°
2026-04-22 16:40 48.11757 16.57370 621 ft 15 kts 165°
2026-04-22 16:41 48.11632 16.57421 624 ft 22 kts 159°
2026-04-22 16:41 48.11515 16.57586 626 ft 25 kts 147°
2026-04-22 16:41 48.11334 16.57673 618 ft 31 kts 163°
2026-04-22 16:41 48.11103 16.57768 616 ft 37 kts 164°
2026-04-22 16:42 48.10840 16.57881 623 ft 40 kts 164°
2026-04-22 16:42 48.10586 16.57988 625 ft 37 kts 164°
2026-04-22 16:42 48.10348 16.58089 625 ft 34 kts 164°
2026-04-22 16:42 48.10124 16.58185 618 ft 33 kts 163°
2026-04-22 16:43 48.09905 16.58279 616 ft 32 kts 164°
2026-04-22 16:43 48.09695 16.58367 619 ft 31 kts 164°
2026-04-22 16:43 48.09482 16.58454 621 ft 33 kts 165°
2026-04-22 16:43 48.09261 16.58548 603 ft 34 kts 163°
2026-04-22 16:44 48.09029 16.58646 601 ft 35 kts 164°
2026-04-22 16:44 48.08878 16.58716 603 ft 33 kts 154°
2026-04-22 16:44 48.08802 16.58970 600 ft 25 kts 71°
2026-04-22 16:44 48.08918 16.59111 601 ft 19 kts
2026-04-22 16:45 48.08996 16.59077 602 ft 11 kts 344°
2026-04-22 16:45 48.09116 16.59025 602 ft 33 kts 344°
2026-04-22 16:45 48.09625 16.58809 617 ft 119 kts 344°
2026-04-22 16:45 48.10699 16.58355 649 ft 195 kts 343°
2026-04-22 16:46 48.12049 16.57773 1660 ft 200 kts 345°
2026-04-22 16:46 48.13396 16.57585 2913 ft 203 kts
2026-04-22 16:46 48.14703 16.58626 3073 ft 229 kts 48°
2026-04-22 16:46 48.15316 16.60893 3480 ft 246 kts 81°
2026-04-22 16:47 48.15415 16.63462 4160 ft 247 kts 83°
2026-04-22 16:47 48.15617 16.66048 4690 ft 254 kts 75°
2026-04-22 16:47 48.15988 16.68661 5328 ft 258 kts 73°
2026-04-22 16:47 48.16394 16.71300 6000 ft 262 kts 77°
2026-04-22 16:48 48.16256 16.74070 6481 ft 278 kts 109°
2026-04-22 16:48 48.15144 16.76462 7152 ft 283 kts 135°
2026-04-22 16:48 48.13834 16.78641 7602 ft 284 kts 112°
2026-04-22 16:48 48.13284 16.81428 8153 ft 278 kts 99°
2026-04-22 16:49 48.12762 16.84249 8759 ft 284 kts 105°
2026-04-22 16:49 48.12115 16.87018 9447 ft 285 kts 108°
2026-04-22 16:49 48.11110 16.89592 9935 ft 293 kts 133°
2026-04-22 16:49 48.09590 16.91679 10396 ft 300 kts 135°
2026-04-22 16:50 48.07999 16.93860 10582 ft 320 kts 134°
2026-04-22 16:50 48.06324 16.96222 10777 ft 341 kts 134°
2026-04-22 16:50 48.04560 16.98740 10948 ft 362 kts 134°
2026-04-22 16:50 48.02709 17.01406 11344 ft 372 kts 131°
2026-04-22 16:51 48.01254 17.04589 11734 ft 375 kts 109°
2026-04-22 16:51 48.00674 17.08355 12436 ft 369 kts 93°
2026-04-22 16:51 48.00420 17.12155 13103 ft 375 kts 92°
2026-04-22 16:51 48.00152 17.16091 13896 ft 377 kts 93°
2026-04-22 16:52 47.99873 17.19997 14640 ft 379 kts 93°
2026-04-22 16:52 47.99583 17.23934 15342 ft 383 kts 93°
2026-04-22 16:52 47.99285 17.27853 16010 ft 386 kts 93°
2026-04-22 16:52 47.98976 17.31847 16686 ft 389 kts 93°
2026-04-22 16:53 47.98571 17.35862 17335 ft 394 kts 99°
2026-04-22 16:53 47.97814 17.39856 17951 ft 402 kts 105°
2026-04-22 16:53 47.96894 17.43820 18604 ft 405 kts 106°
2026-04-22 16:53 47.95932 17.47805 19222 ft 407 kts 106°
2026-04-22 16:54 47.94993 17.51752 19830 ft 409 kts 105°
2026-04-22 16:54 47.94063 17.55771 20415 ft 412 kts 105°
2026-04-22 16:54 47.93140 17.59848 20992 ft 415 kts 105°
2026-04-22 16:54 47.92227 17.63941 21554 ft 417 kts 104°
2026-04-22 16:55 47.91310 17.68070 22124 ft 420 kts 104°
2026-04-22 16:55 47.90390 17.72215 22669 ft 423 kts 104°
2026-04-22 16:55 47.89461 17.76395 23212 ft 426 kts 104°
2026-04-22 16:55 47.88525 17.80596 23731 ft 429 kts 104°
2026-04-22 16:56 47.87578 17.84832 24165 ft 432 kts 104°
2026-04-22 16:56 47.86627 17.89081 24625 ft 434 kts 105°
2026-04-22 16:56 47.85668 17.93354 25070 ft 436 kts 105°
2026-04-22 16:56 47.84692 17.97644 25491 ft 439 kts 106°
2026-04-22 16:57 47.83505 18.01854 25884 ft 444 kts 111°
2026-04-22 16:57 47.82181 18.06028 26299 ft 446 kts 111°
2026-04-22 16:57 47.80851 18.10212 26691 ft 449 kts 111°
2026-04-22 16:57 47.79522 18.14421 27081 ft 451 kts 111°
2026-04-22 16:58 47.78642 18.17225 27334 ft 452 kts 111°
2026-04-22 16:58 47.76877 18.22871 27833 ft 455 kts 111°
2026-04-22 16:58 47.75543 18.27151 28197 ft 457 kts 110°
2026-04-22 16:58 47.74416 18.31567 28513 ft 456 kts 103°
2026-04-22 16:59 47.73586 18.36114 28844 ft 456 kts 99°
2026-04-22 16:59 47.73025 18.40744 29165 ft 455 kts 94°
2026-04-22 16:59 47.72674 18.45420 29486 ft 457 kts 93°
2026-04-22 16:59 47.72338 18.50126 29773 ft 459 kts 93°
2026-04-22 17:00 47.71996 18.54845 30058 ft 460 kts 93°
2026-04-22 17:00 47.71279 18.64304 30633 ft 461 kts 93°
2026-04-22 17:00 47.70908 18.69028 30908 ft 461 kts 94°
2026-04-22 17:01 47.70533 18.73764 31041 ft 464 kts 94°
2026-04-22 17:01 47.70153 18.78544 31064 ft 466 kts 94°
2026-04-22 17:01 47.69389 18.88056 31109 ft 461 kts 94°
2026-04-22 17:02 47.68082 18.97393 31109 ft 465 kts 105°
2026-04-22 17:02 47.65494 19.06266 31105 ft 471 kts 115°
2026-04-22 17:03 47.62245 19.14730 31107 ft 473 kts 116°
2026-04-22 17:03 47.58962 19.23189 31109 ft 474 kts 116°
2026-04-22 17:04 47.55693 19.31678 31070 ft 475 kts 116°
2026-04-22 17:04 47.52447 19.40137 31110 ft 476 kts 116°
2026-04-22 17:05 47.49173 19.48657 31090 ft 476 kts 116°
2026-04-22 17:05 47.45891 19.57168 31092 ft 477 kts 116°
2026-04-22 17:06 47.42600 19.65671 31101 ft 477 kts 116°
2026-04-22 17:06 47.39300 19.74171 31105 ft 477 kts 116°
2026-04-22 17:07 47.35994 19.82663 31094 ft 477 kts 116°
2026-04-22 17:07 47.32674 19.91162 31098 ft 478 kts 116°
2026-04-22 17:08 47.29349 19.99644 31104 ft 478 kts 117°
2026-04-22 17:08 47.26037 20.08069 31101 ft 478 kts 117°
2026-04-22 17:09 47.22694 20.16546 31104 ft 479 kts 117°
2026-04-22 17:09 47.19344 20.25015 31104 ft 479 kts 117°
2026-04-22 17:10 47.15976 20.33502 31105 ft 480 kts 117°
2026-04-22 17:10 47.12604 20.41972 31105 ft 481 kts 117°
2026-04-22 17:11 47.09218 20.50453 31104 ft 481 kts 117°
2026-04-22 17:11 47.05823 20.58927 31105 ft 482 kts 117°
2026-04-22 17:12 47.02444 20.67337 31108 ft 482 kts 117°
2026-04-22 17:12 46.99035 20.75795 31107 ft 482 kts 117°
2026-04-22 17:13 46.95617 20.84250 31105 ft 483 kts 118°
2026-04-22 17:13 46.92185 20.92711 31112 ft 483 kts 118°
2026-04-22 17:14 46.88746 21.01166 31110 ft 483 kts 118°
2026-04-22 17:14 46.85320 21.09561 31112 ft 484 kts 118°
2026-04-22 17:15 46.81866 21.18001 31110 ft 484 kts 118°
2026-04-22 17:15 46.78396 21.26454 31111 ft 485 kts 118°
2026-04-22 17:16 46.74918 21.34901 31111 ft 486 kts 118°
2026-04-22 17:16 46.71433 21.43343 31113 ft 486 kts 118°
2026-04-22 17:17 46.67779 21.51656 31101 ft 489 kts 125°
2026-04-22 17:17 46.63456 21.59238 31105 ft 490 kts 128°
2026-04-22 17:18 46.59025 21.66861 31098 ft 490 kts 128°
2026-04-22 17:18 46.54664 21.74416 31105 ft 491 kts 128°
2026-04-22 17:19 46.45908 21.89635 31102 ft 491 kts 128°
2026-04-22 17:20 46.37118 22.04828 31094 ft 492 kts 128°
2026-04-22 17:21 46.30506 22.16199 31094 ft 492 kts 128°
2026-04-22 17:22 46.23911 22.27495 31096 ft 492 kts 128°
2026-04-22 17:23 46.17269 22.38827 31097 ft 493 kts 128°
2026-04-22 17:23 46.10612 22.50135 31102 ft 492 kts 128°
2026-04-22 17:24 46.06194 22.57615 31079 ft 493 kts 129°
2026-04-22 17:24 46.01750 22.65120 31077 ft 493 kts 129°
2026-04-22 17:25 45.97302 22.72610 31096 ft 493 kts 129°
2026-04-22 17:25 45.92843 22.80099 31098 ft 493 kts 129°
2026-04-22 17:26 45.88383 22.87573 31097 ft 493 kts 129°
2026-04-22 17:26 45.83909 22.95048 31099 ft 493 kts 129°
2026-04-22 17:27 45.79197 23.02222 31102 ft 494 kts 134°
2026-04-22 17:27 45.74327 23.09177 31082 ft 494 kts 134°
2026-04-22 17:28 45.69479 23.16089 31085 ft 495 kts 134°
2026-04-22 17:28 45.64612 23.23050 31109 ft 495 kts 134°
2026-04-22 17:29 45.60569 23.28834 31109 ft 495 kts 134°
2026-04-22 17:29 45.55703 23.35780 31090 ft 495 kts 134°
2026-04-22 17:30 45.50828 23.42721 31093 ft 495 kts 134°
2026-04-22 17:30 45.45950 23.49646 31092 ft 495 kts 134°
2026-04-22 17:31 45.41069 23.56557 31085 ft 495 kts 134°
2026-04-22 17:31 45.36175 23.63469 31091 ft 496 kts 134°
2026-04-22 17:32 45.31279 23.70366 31106 ft 495 kts 134°
2026-04-22 17:32 45.26375 23.77258 31081 ft 495 kts 134°
2026-04-22 17:33 45.21476 23.84123 31076 ft 495 kts 135°
2026-04-22 17:33 45.16612 23.90922 31075 ft 494 kts 135°
2026-04-22 17:34 45.11715 23.97750 31068 ft 494 kts 135°
2026-04-22 17:34 45.06816 24.04563 31059 ft 494 kts 135°
2026-04-22 17:35 45.01900 24.11383 31077 ft 494 kts 135°
2026-04-22 17:35 44.96978 24.18193 31070 ft 495 kts 135°
2026-04-22 17:36 44.92050 24.24995 31075 ft 496 kts 135°
2026-04-22 17:36 44.87138 24.31757 31071 ft 496 kts 135°
2026-04-22 17:37 44.82184 24.38561 31057 ft 497 kts 136°
2026-04-22 17:37 44.77221 24.45359 31051 ft 497 kts 136°
2026-04-22 17:38 44.72254 24.52145 31056 ft 498 kts 136°
2026-04-22 17:38 44.67276 24.58930 31070 ft 498 kts 136°
2026-04-22 17:39 44.62325 24.65661 31066 ft 499 kts 136°
2026-04-22 17:40 44.54829 24.75818 31068 ft 500 kts 136°
2026-04-22 17:40 44.49821 24.82585 31066 ft 500 kts 137°
2026-04-22 17:41 44.44806 24.89342 31067 ft 501 kts 137°
2026-04-22 17:41 44.39774 24.96106 31068 ft 501 kts 137°
2026-04-22 17:42 44.34735 25.02862 31064 ft 502 kts 137°
2026-04-22 17:42 44.29689 25.09610 31066 ft 503 kts 137°
2026-04-22 17:43 44.24630 25.16360 31066 ft 503 kts 137°
2026-04-22 17:43 44.19553 25.23117 31068 ft 504 kts 138°
2026-04-22 17:44 44.14507 25.29814 31070 ft 505 kts 138°
2026-04-22 17:44 44.09411 25.36563 31072 ft 506 kts 138°
2026-04-22 17:45 44.04304 25.43308 31064 ft 507 kts 138°
2026-04-22 17:45 43.99184 25.50054 31067 ft 507 kts 139°
2026-04-22 17:46 43.94056 25.56795 31068 ft 508 kts 139°
2026-04-22 17:46 43.88910 25.63541 31064 ft 509 kts 139°
2026-04-22 17:47 43.83748 25.70293 31068 ft 510 kts 139°
2026-04-22 17:47 43.78609 25.77000 31072 ft 511 kts 139°
2026-04-22 17:48 43.74388 25.82819 31068 ft 514 kts 134°
2026-04-22 17:48 43.69329 25.92021 31073 ft 517 kts 128°
2026-04-22 17:49 43.65061 26.00055 31072 ft 518 kts 129°
2026-04-22 17:49 43.60754 26.08058 31073 ft 519 kts 129°
2026-04-22 17:50 43.56418 26.16041 31074 ft 520 kts 129°
2026-04-22 17:50 43.52058 26.24034 31074 ft 521 kts 130°
2026-04-22 17:51 43.47716 26.31978 31073 ft 522 kts 130°
2026-04-22 17:51 43.43341 26.39962 31072 ft 523 kts 130°
2026-04-22 17:52 43.38939 26.47975 31074 ft 524 kts 130°
2026-04-22 17:52 43.34538 26.55965 31070 ft 525 kts 130°
2026-04-22 17:53 43.30155 26.63901 31063 ft 526 kts 130°
2026-04-22 17:53 43.25726 26.71898 31064 ft 526 kts 131°
2026-04-22 17:54 43.21275 26.79912 31069 ft 528 kts 131°
2026-04-22 17:54 43.16814 26.87923 31082 ft 529 kts 131°
2026-04-22 17:55 43.13090 26.94594 31061 ft 530 kts 131°
2026-04-22 17:55 43.07842 27.03970 31076 ft 531 kts 131°
2026-04-22 17:56 43.03331 27.12007 31080 ft 532 kts 131°
2026-04-22 17:56 42.98823 27.20015 31082 ft 532 kts 132°
2026-04-22 17:57 42.94307 27.28016 31077 ft 532 kts 132°
2026-04-22 17:57 42.89783 27.36009 31087 ft 532 kts 132°
2026-04-22 17:58 42.85285 27.43936 31077 ft 532 kts 132°
2026-04-22 17:58 42.80741 27.51922 31078 ft 533 kts 133°
2026-04-22 17:59 42.76354 27.59611 31079 ft 533 kts 133°
2026-04-22 17:59 42.71815 27.67546 31086 ft 534 kts 133°
2026-04-22 18:00 42.67990 27.74217 31078 ft 534 kts 133°
2026-04-22 18:00 42.62661 27.83484 31080 ft 535 kts 133°
2026-04-22 18:01 42.58063 27.91457 31080 ft 535 kts 133°
2026-04-22 18:01 42.53487 27.99372 31080 ft 536 kts 133°
2026-04-22 18:02 42.48870 28.07337 31084 ft 536 kts 134°
2026-04-22 18:02 42.44252 28.15280 31085 ft 537 kts 134°
2026-04-22 18:03 42.39621 28.23227 31085 ft 537 kts 134°
2026-04-22 18:03 42.34992 28.31149 31082 ft 537 kts 134°
2026-04-22 18:04 42.30360 28.39055 31086 ft 536 kts 134°
2026-04-22 18:04 42.25713 28.46965 31081 ft 537 kts 134°
2026-04-22 18:05 42.21096 28.54805 31083 ft 537 kts 134°
2026-04-22 18:05 42.16442 28.62686 31088 ft 537 kts 134°
2026-04-22 18:06 42.11784 28.70558 31087 ft 537 kts 134°
2026-04-22 18:06 42.07204 28.78532 31086 ft 540 kts 128°
2026-04-22 18:07 42.03853 28.85638 31094 ft 542 kts 126°
2026-04-22 18:07 41.99206 28.95708 31097 ft 541 kts 127°
2026-04-22 18:08 41.95208 29.04266 31079 ft 540 kts 127°
2026-04-22 18:08 41.91192 29.12775 31079 ft 538 kts 127°
2026-04-22 18:09 41.87169 29.21257 31080 ft 537 kts 127°
2026-04-22 18:09 41.83178 29.29654 31076 ft 537 kts 127°
2026-04-22 18:10 41.79160 29.38089 31075 ft 536 kts 128°
2026-04-22 18:10 41.75137 29.46511 31074 ft 536 kts 128°
2026-04-22 18:11 41.71108 29.54923 31078 ft 537 kts 128°
2026-04-22 18:11 41.67068 29.63334 31079 ft 537 kts 128°
2026-04-22 18:12 41.63017 29.71745 31077 ft 538 kts 128°
2026-04-22 18:12 41.59642 29.78733 31078 ft 539 kts 128°
2026-04-22 18:13 41.54872 29.88585 31081 ft 540 kts 128°
2026-04-22 18:13 41.50812 29.96946 31075 ft 541 kts 128°
2026-04-22 18:14 41.47376 30.04003 31087 ft 542 kts 128°
2026-04-22 18:14 41.42598 30.13790 31081 ft 542 kts 128°
2026-04-22 18:15 41.39169 30.20795 31078 ft 542 kts 128°
2026-04-22 18:15 41.35044 30.29201 31078 ft 542 kts 128°
2026-04-22 18:16 41.30913 30.37595 31076 ft 541 kts 128°
2026-04-22 18:16 41.26786 30.45959 31075 ft 541 kts 128°
2026-04-22 18:17 41.22650 30.54317 31075 ft 540 kts 128°
2026-04-22 18:17 41.18513 30.62655 31079 ft 540 kts 128°
2026-04-22 18:18 41.14375 30.70972 31080 ft 539 kts 128°
2026-04-22 18:18 41.10259 30.79223 31080 ft 539 kts 128°
2026-04-22 18:19 41.06111 30.87517 31079 ft 539 kts 128°
2026-04-22 18:19 41.01956 30.95805 31080 ft 541 kts 128°
2026-04-22 18:20 40.97789 31.04123 31084 ft 543 kts 128°
2026-04-22 18:20 40.93644 31.12504 31075 ft 545 kts 128°
2026-04-22 18:21 40.89496 31.20898 31074 ft 545 kts 128°
2026-04-22 18:21 40.85332 31.29283 31071 ft 545 kts 128°
2026-04-22 18:22 40.81170 31.37628 31070 ft 543 kts 128°
2026-04-22 18:22 40.77043 31.45884 31063 ft 542 kts 128°
2026-04-22 18:23 40.72888 31.54170 31059 ft 540 kts 128°
2026-04-22 18:23 40.68745 31.62414 31067 ft 538 kts 128°
2026-04-22 18:24 40.62536 31.74728 31050 ft 538 kts 128°
2026-04-22 18:25 40.56842 31.87499 31038 ft 544 kts 116°
2026-04-22 18:25 40.54151 31.96827 31033 ft 546 kts 113°
2026-04-22 18:26 40.50108 32.10790 31031 ft 545 kts 114°
2026-04-22 18:26 40.47367 32.20033 31019 ft 545 kts 113°
2026-04-22 18:27 40.44915 32.29476 31004 ft 546 kts 111°
2026-04-22 18:27 40.42563 32.38958 31004 ft 546 kts 110°
2026-04-22 18:28 40.40190 32.48417 31004 ft 545 kts 111°
2026-04-22 18:28 40.37787 32.57856 30979 ft 545 kts 111°
2026-04-22 18:29 40.35389 32.67218 30969 ft 544 kts 111°
2026-04-22 18:29 40.32979 32.76599 30960 ft 542 kts 111°
2026-04-22 18:30 40.29356 32.90643 30940 ft 541 kts 111°
2026-04-22 18:31 40.26939 32.99976 30951 ft 540 kts 111°
2026-04-22 18:31 40.24594 33.09317 30961 ft 540 kts 107°
2026-04-22 18:32 40.23237 33.18931 30970 ft 541 kts 98°
2026-04-22 18:32 40.22348 33.28719 30938 ft 540 kts 98°
2026-04-22 18:33 40.21416 33.38455 30938 ft 539 kts 98°
2026-04-22 18:33 40.20433 33.48172 30922 ft 538 kts 99°
2026-04-22 18:34 40.19434 33.57885 30908 ft 538 kts 99°
2026-04-22 18:34 40.18434 33.67588 30905 ft 538 kts 99°
2026-04-22 18:35 40.17428 33.77289 30897 ft 538 kts 99°
2026-04-22 18:35 40.16374 33.86964 30898 ft 537 kts 101°
2026-04-22 18:36 40.14987 33.96493 30893 ft 536 kts 102°
2026-04-22 18:36 40.13819 34.06115 30885 ft 536 kts 99°
2026-04-22 18:37 40.12861 34.15793 30876 ft 536 kts 98°
2026-04-22 18:37 40.12041 34.23824 30867 ft 536 kts 99°
2026-04-22 18:38 40.10819 34.35090 30851 ft 535 kts 99°
2026-04-22 18:38 40.09745 34.44716 30847 ft 534 kts 99°
2026-04-22 18:39 40.08128 34.59122 30843 ft 533 kts 99°
2026-04-22 18:39 40.07053 34.68637 30841 ft 533 kts 99°
2026-04-22 18:40 40.05964 34.78207 30831 ft 532 kts 99°
2026-04-22 18:40 40.04868 34.87767 30831 ft 532 kts 99°
2026-04-22 18:41 40.03765 34.97311 30824 ft 531 kts 100°
2026-04-22 18:41 40.02654 35.06854 30823 ft 531 kts 100°
2026-04-22 18:42 40.01535 35.16398 30815 ft 531 kts 100°
2026-04-22 18:42 40.00415 35.25885 30817 ft 531 kts 100°
2026-04-22 18:43 39.99283 35.35411 30814 ft 531 kts 100°
2026-04-22 18:43 39.98112 35.44932 30812 ft 531 kts 101°
2026-04-22 18:44 39.96906 35.54447 30819 ft 531 kts 101°
2026-04-22 18:44 39.95698 35.63954 30821 ft 531 kts 101°
2026-04-22 18:45 39.94488 35.73459 30831 ft 531 kts 101°
2026-04-22 18:45 39.93271 35.82964 30842 ft 531 kts 101°
2026-04-22 18:46 39.92055 35.92405 30851 ft 531 kts 101°
2026-04-22 18:46 39.90813 36.01886 30855 ft 530 kts 101°
2026-04-22 18:47 39.89556 36.11348 30862 ft 530 kts 101°
2026-04-22 18:47 39.88296 36.20811 30855 ft 530 kts 101°
2026-04-22 18:48 39.87012 36.30263 30859 ft 529 kts 102°
2026-04-22 18:48 39.85580 36.39641 30867 ft 528 kts 102°
2026-04-22 18:49 39.84313 36.49053 30884 ft 528 kts 101°
2026-04-22 18:49 39.83096 36.58473 30922 ft 527 kts 101°
2026-04-22 18:50 39.81843 36.67807 30954 ft 526 kts 101°
2026-04-22 18:50 39.80563 36.77184 30988 ft 526 kts 101°
2026-04-22 18:51 39.79764 36.86601 30987 ft 526 kts 85°
2026-04-22 18:51 39.80336 36.91284 31000 ft 525 kts 74°
2026-04-22 18:51 39.81525 36.95773 31004 ft 524 kts 62°
2026-04-22 18:52 39.85119 37.03965 30991 ft 522 kts 57°
2026-04-22 18:52 39.88797 37.12151 30953 ft 526 kts 58°
2026-04-22 18:53 39.92420 37.20462 30907 ft 528 kts 58°
2026-04-22 18:53 39.96009 37.28817 30874 ft 527 kts 58°
2026-04-22 18:54 39.99582 37.37149 30858 ft 526 kts 59°
2026-04-22 18:54 40.03145 37.45463 30870 ft 525 kts 59°
2026-04-22 18:55 40.06099 37.52371 30859 ft 524 kts 59°